C/2020 F3 ( NEOWISE )

Japanese version
Home page
Updated on May 30, 2020

---------------------------------------------------------------------

* Profile

Discovery Date March 27, 2020
Magnitude 17 mag
Discoverer Near-Earth Object Wide-field Infrared Survey Explorer

* Pictures

* Orbital Elements

Epoch 2020 July 10.0 TT = JDT 2459040.5
T 2020 July 3.68626 TT                                  Rudenko
q   0.2948255            (2000.0)            P               Q
z  +0.0026030      Peri.   37.26522     +0.71853219     +0.14407972
 +/-0.0001626      Node    61.01396     +0.28216954     -0.95456473
e   0.9992326      Incl.  128.93676     +0.63568219     +0.26085861
From 282 observations 2020 Mar. 27-Apr. 28, mean residual 0".5.

* Finding Charts

* Magnitudes Graph

        m1 = 3.5 + 5 log d + 30   log r  [   ,-68]  (             - 2020 Apr. 26)
        m1 = 7.5 + 5 log d + 10.0 log r  [-68,   ]  (2020 Apr. 26 -             )

---------------------------------------------------------------------

The orbital elements are published on M.P.E.C. 2020-H235.
The charts are made with StellaNavigator Ver.10 (AstroArts).
The magnitudes graphs are made with Comet for Windows.

---------------------------------------------------------------------

Copyright(C) Seiichi Yoshida (comet@aerith.net). All rights reserved.